Location: Arborea
(39.7744°N, 8.5819°E)
Time: 00:33:04
(UTC+00:00)

Cosmos 44 - Pass Details

Date: 24 October 2021
Orbit: 580 x 782 km, 65.1° (Epoch: 06 December)

Event Time Altitude Azimuth Distance (km) Brightness Sun altitude
Rises 18:31:07 0° 227° (SW) 3,249 7.4 -23.2°
Reaches altitude 10° 18:33:37 10° 234° (SW) 2,330 6.6 -23.7°
Maximum altitude 18:38:47 46° 307° (NW) 1,041 4.5 -24.7°
Enters shadow 18:42:35 17° 14° (NNE) 1,853 5.4 -25.4°
